Temp
10 10 10 10 11 11 11 11 11 11 11 11 11 11 11 11 11 10 10 9 9 13 15 16 17 18 18 20 22 22 22 23 25 24 25 26 26 23 15 19 27 26 21 20 26 27 27 33 31 30 31 32 34 33
10 10 10 10 11 11 11 11 11 11 11 11 11 11 11 11 10 10 8 8 7 8 13 13 13 14 16 18 19 21 22 22 24 25 25 26 22 14 15 17 28 26 20 14 15 19 16 28 29 27 29 29 29 29
9 9 10 10 10 11 11 11 11 11 11 11 11 11 11 10 9 9 7 7 6 9 13 16 18 17 15 15 16 18 20 21 22 22 23 23 22 21 18 20 25 18 20 17 13 13 16 26 26 27 27 27 27 26
8 8 9 9 10 10 10 11 11 11 11 11 11 11 10 10 9 9 7 6 5 9 13 20 18 17 17 17 17 16 17 19 20 21 22 23 23 23 24 26 19 20 15 17 16 15 21 26 25 25 25 25 25 25
7 8 8 8 9 10 10 10 10 10 10 11 11 11 10 10 9 9 8 7 5 8 13 15 16 18 19 18 17 16 16 17 19 21 22 23 24 20 20 25 25 24 23 21 21 23 24 25 24 24 24 24 24 23
8 7 8 8 8 9 10 10 10 10 10 10 10 10 10 9 9 8 9 7 6 4 6 16 18 18 18 18 17 16 17 17 18 19 21 22 23 21 23 22 25 26 25 25 25 23 24 24 24 24 23 23 22 23
8 8 7 8 8 9 9 10 10 10 10 10 10 10 10 10 9 8 9 7 7 6 6 13 19 19 18 18 18 17 17 18 18 19 20 21 23 22 23 23 25 23 23 22 22 22 23 23 24 23 23 22 21 22
8 8 8 8 8 8 9 10 10 10 9 10 10 10 10 9 8 8 7 7 6 5 8 13 18 20 19 19 19 18 18 18 19 20 21 23 22 23 22 23 24 24 23 22 22 22 23 22 22 22 22 22 22 22
9 8 8 8 8 8 9 9 10 10 9 10 9 8 8 7 7 7 7 6 5 6 7 13 18 17 17 20 17 18 19 20 20 21 22 22 23 22 23 22 23 23 22 22 22 22 22 22 22 21 21 22 22 22
9 9 8 8 8 8 9 9 9 9 9 9 9 8 9 8 7 7 6 5 5 6 6 11 14 17 19 19 16 17 17 20 19 22 22 22 23 23 22 21 20 19 20 20 20 21 21 20 21 22 22 22 22 22
9 9 8 8 8 8 9 9 9 9 8 9 11 12 8 8 8 7 10 10 9 10 8 10 12 14 16 16 15 16 17 17 17 19 21 21 22 20 19 19 18 17 17 18 19 19 20 21 22 22 22 22 21 20
9 9 9 8 8 9 9 9 9 8 7 8 8 9 8 10 13 14 14 12 12 10 9 9 11 13 14 15 15 19 18 19 18 19 16 17 16 18 18 18 17 17 17 18 18 18 19 20 21 22 22 21 20 19
9 9 9 9 8 9 9 9 9 9 9 8 8 10 13 14 12 14 15 14 11 12 13 12 12 12 13 14 15 16 17 19 20 18 19 16 16 17 16 17 17 17 17 18 18 19 19 19 19 21 21 20 19 16
9 9 9 9 9 9 9 9 9 9 9 11 14 10 16 15 16 16 14 14 14 13 13 13 13 12 13 12 13 15 17 19 17 17 18 16 16 16 16 16 16 17 17 17 18 18 18 18 19 20 20 19 18 17
9 9 9 9 9 9 9 9 9 9 9 13 14 13 16 17 14 15 15 14 13 13 14 13 14 14 15 15 18 19 18 18 19 17 15 14 15 15 14 14 15 15 16 16 16 17 19 19 20 19 19 18 17 16
8 9 9 9 9 9 9 9 9 9 9 12 14 16 16 17 17 16 16 15 15 14 13 15 16 15 14 16 17 17 18 18 16 16 14 14 13 13 13 12 12 13 14 15 15 15 16 18 19 19 18 17 16 15
8 8 8 8 9 9 9 9 8 7 11 14 16 17 17 17 16 16 16 13 13 14 13 13 13 15 16 15 16 15 15 15 15 16 15 14 13 13 12 12 12 13 13 14 14 14 15 16 18 17 16 16 16 15
8 7 8 9 9 9 7 8 9 12 13 15 17 17 17 17 16 15 13 11 12 12 12 11 10 13 14 15 15 13 15 15 15 15 15 14 13 13 12 12 12 13 14 14 14 14 14 15 15 15 15 15 15 14
8 8 8 8 9 8 10 11 10 13 16 18 17 17 17 16 15 14 12 11 11 10 9 9 10 11 11 12 11 11 12 12 12 12 13 14 13 13 12 12 12 13 13 13 13 13 13 14 14 14 14 14 14 14
8 9 9 9 9 7 11 12 10 11 16 17 17 17 17 16 15 13 13 13 11 10 9 9 9 9 8 9 9 9 9 10 10 11 12 13 13 13 13 12 13 13 12 12 12 12 12 12 11 13 13 13 13 13
8 8 9 8 8 7 11 14 14 15 16 17 17 17 17 16 15 15 15 13 10 8 9 8 8 7 7 8 9 9 9 9 9 9 9 10 11 12 12 12 11 11 11 11 11 11 11 12 12 12 13 13 13 13
7 8 7 8 7 8 8 11 13 15 15 17 17 17 15 15 15 16 14 14 12 9 8 8 8 7 7 8 8 9 9 9 9 9 9 9 10 10 10 10 11 10 11 11 11 11 10 11 11 12 12 14 16 15
8 8 8 9 8 8 11 13 14 15 16 17 18 17 15 15 16 15 15 15 12 10 10 10 8 8 8 8 8 9 9 8 9 9 9 9 9 9 9 10 10 10 10 10 10 10 10 10 11 12 12 15 15 14
7 8 11 11 8 11 15 15 15 16 17 17 17 17 16 15 16 16 16 15 14 12 11 10 10 9 9 10 9 9 9 9 9 9 9 9 9 8 8 9 9 9 10 9 10 10 10 11 12 14 14 14 14 14
7 8 9 6 13 14 16 17 17 18 17 17 18 17 15 16 16 15 16 16 14 13 12 11 11 12 12 11 11 10 10 10 10 10 9 10 9 9 9 9 9 9 10 10 11 11 12 13 12 12 14 15 15 16
8 11 9 15 16 16 18 17 17 17 17 17 17 17 17 16 16 15 16 15 14 14 13 13 14 14 14 12 12 12 13 12 12 12 12 12 12 12 12 12 12 12 13 13 13 14 14 14 15 15 15 15 16 16
8 14 14 14 16 17 18 18 18 18 17 16 18 18 17 16 16 14 16 16 15 15 14 15 15 15 15 15 14 14 14 14 13 14 14 13 13 13 13 12 13 13 14 14 14 14 15 15 15 15 15 15 15 16
12 14 16 16 16 16 17 16 17 17 18 18 18 17 17 17 15 15 15 15 15 15 15 15 15 15 15 15 15 14 14 15 14 15 15 14 14 14 13 13 13 13 13 13 13 13 14 14 14 14 14 14 14 14
13 14 15 16 17 17 17 17 17 18 18 17 17 16 16 15 15 15 15 14 15 16 16 16 16 16 16 16 16 14 13 14 15 14 15 15 15 15 15 14 14 14 13 12 11 12 12 12 13 13 13 13 13 12
14 15 16 16 17 17 17 18 17 17 17 17 16 16 14 14 14 14 14 14 15 16 16 15 16 16 16 16 17 16 15 14 15 16 16 15 15 15 14 14 14 14 14 14 13 12 12 13 12 12 12 12 12 12
16 16 16 17 18 18 17 17 17 17 17 16 16 15 13 14 14 14 15 15 15 15 16 16 16 16 16 16 17 16 16 16 15 15 16 15 15 14 14 14 14 13 13 13 13 13 12 12 11 11 11 11 10 11
16 16 17 18 17 17 17 17 17 16 16 16 17 16 15 15 14 13 14 14 14 15 15 15 16 15 16 16 16 15 15 15 15 15 15 15 14 14 14 14 14 13 13 12 12 12 12 11 11 11 10 10 10 9
16 17 17 17 16 17 17 17 15 16 16 17 17 17 16 15 15 15 14 13 14 15 15 15 15 15 15 15 15 15 15 14 14 14 14 13 13 13 14 14 14 13 13 13 12 12 11 11 11 10 10 9 9 9
Height
1543 1540 1537 1535 1531 1528 1525 1521 1518 1514 1510 1507 1503 1501 1498 1495 1494 1493 1494 1491 1491 1484 1471 1467 1466 1464 1462 1460 1455 1448 1451 1447 1439 1437 1428 1422 1417 1421 1461 1444 1411 1415 1431 1435 1415 1411 1419 1381 1389 1398 1394 1393 1386 1394
1541 1538 1536 1533 1530 1526 1523 1520 1517 1513 1509 1506 1502 1499 1496 1494 1491 1490 1492 1490 1486 1484 1468 1460 1457 1456 1457 1458 1456 1450 1445 1443 1433 1427 1423 1417 1428 1447 1462 1458 1402 1414 1422 1450 1459 1434 1420 1395 1392 1397 1397 1403 1405 1409
1539 1536 1533 1530 1527 1524 1521 1518 1514 1511 1507 1504 1501 1497 1494 1491 1488 1487 1486 1487 1483 1477 1462 1453 1449 1448 1446 1448 1453 1453 1448 1445 1441 1438 1433 1427 1432 1431 1438 1431 1409 1420 1423 1439 1459 1437 1414 1395 1400 1404 1406 1411 1415 1419
1537 1534 1531 1527 1524 1521 1518 1514 1511 1508 1504 1500 1497 1493 1490 1487 1485 1482 1480 1483 1482 1480 1468 1446 1445 1445 1445 1446 1447 1447 1448 1446 1443 1439 1437 1429 1426 1426 1413 1407 1426 1425 1418 1430 1423 1428 1400 1399 1402 1409 1413 1416 1418 1422
1534 1531 1528 1525 1521 1518 1515 1511 1508 1504 1500 1496 1491 1488 1485 1482 1480 1478 1475 1474 1477 1484 1467 1452 1443 1437 1437 1439 1440 1442 1443 1444 1443 1440 1434 1426 1420 1419 1420 1411 1411 1411 1407 1415 1406 1400 1401 1402 1407 1412 1415 1419 1422 1424
1531 1528 1525 1521 1518 1515 1511 1507 1503 1499 1495 1490 1486 1483 1480 1478 1476 1475 1475 1474 1471 1475 1476 1454 1438 1435 1434 1435 1436 1437 1438 1440 1440 1438 1433 1426 1422 1423 1411 1407 1407 1403 1406 1406 1402 1411 1409 1410 1410 1413 1418 1422 1424 1426
1527 1525 1521 1518 1514 1511 1507 1503 1499 1495 1490 1486 1482 1478 1475 1472 1472 1476 1476 1474 1472 1473 1474 1458 1432 1425 1430 1431 1431 1432 1433 1434 1434 1432 1429 1426 1418 1420 1416 1410 1402 1408 1411 1413 1416 1419 1417 1415 1412 1417 1422 1425 1426 1427
1522 1521 1518 1514 1511 1507 1503 1499 1495 1491 1486 1481 1477 1474 1471 1468 1469 1473 1472 1472 1472 1473 1472 1461 1434 1424 1424 1423 1423 1426 1427 1429 1427 1426 1422 1418 1418 1416 1412 1411 1407 1406 1408 1412 1414 1414 1412 1414 1418 1421 1423 1425 1426 1427
1518 1516 1514 1511 1507 1503 1499 1494 1490 1487 1482 1478 1475 1473 1472 1472 1473 1472 1471 1471 1471 1475 1469 1454 1434 1430 1427 1419 1421 1423 1421 1420 1419 1417 1415 1412 1408 1407 1406 1410 1409 1409 1410 1411 1412 1413 1415 1417 1420 1422 1423 1424 1425 1425
1514 1512 1510 1507 1503 1499 1495 1490 1487 1483 1479 1476 1474 1474 1474 1473 1471 1472 1470 1471 1471 1469 1467 1457 1444 1432 1425 1418 1421 1421 1421 1412 1410 1406 1406 1406 1399 1400 1403 1408 1412 1414 1415 1416 1416 1415 1416 1417 1418 1418 1419 1420 1421 1422
1509 1507 1505 1503 1499 1495 1491 1487 1484 1480 1478 1477 1476 1473 1474 1471 1471 1469 1467 1467 1466 1464 1461 1455 1446 1438 1429 1427 1427 1422 1417 1415 1415 1407 1400 1399 1396 1398 1407 1410 1412 1414 1415 1415 1415 1415 1415 1414 1414 1415 1415 1417 1419 1422
1504 1503 1501 1498 1494 1490 1487 1484 1481 1478 1478 1476 1474 1472 1473 1472 1465 1461 1456 1460 1460 1460 1457 1453 1446 1441 1435 1430 1427 1415 1414 1407 1409 1404 1411 1409 1405 1405 1408 1409 1410 1412 1412 1411 1410 1410 1410 1410 1410 1410 1411 1415 1418 1421
1499 1498 1496 1493 1490 1486 1484 1481 1478 1475 1473 1472 1472 1472 1467 1464 1463 1456 1449 1450 1456 1453 1448 1446 1443 1439 1435 1433 1427 1421 1414 1404 1398 1403 1400 1406 1408 1406 1409 1409 1410 1409 1409 1407 1405 1404 1404 1404 1405 1407 1408 1413 1416 1419
1494 1494 1492 1489 1486 1483 1480 1478 1476 1473 1472 1473 1466 1468 1457 1454 1451 1446 1449 1449 1447 1445 1443 1441 1439 1438 1432 1432 1427 1421 1411 1405 1407 1404 1400 1407 1408 1409 1410 1409 1409 1408 1406 1404 1402 1400 1399 1399 1401 1403 1406 1410 1415 1418
1489 1488 1486 1484 1482 1480 1477 1475 1473 1472 1474 1468 1463 1460 1451 1448 1450 1448 1446 1444 1442 1441 1437 1436 1431 1429 1425 1422 1408 1401 1401 1401 1393 1400 1406 1409 1410 1411 1410 1409 1408 1406 1404 1403 1401 1398 1396 1396 1398 1401 1405 1409 1414 1416
1484 1484 1481 1480 1478 1476 1473 1471 1470 1470 1470 1465 1459 1450 1447 1444 1443 1442 1439 1440 1438 1437 1434 1429 1424 1421 1418 1413 1405 1401 1394 1394 1402 1406 1410 1410 1411 1411 1410 1407 1405 1404 1402 1400 1398 1396 1395 1395 1396 1399 1403 1408 1412 1416
1481 1480 1478 1477 1474 1472 1470 1468 1468 1467 1465 1458 1449 1445 1444 1442 1443 1439 1438 1440 1439 1435 1434 1431 1427 1417 1412 1409 1406 1405 1407 1408 1408 1408 1409 1410 1410 1409 1407 1406 1403 1402 1400 1398 1396 1394 1393 1393 1394 1397 1402 1408 1412 1416
1478 1478 1475 1473 1471 1469 1467 1466 1467 1463 1457 1450 1445 1443 1443 1441 1440 1438 1440 1438 1437 1436 1435 1434 1433 1422 1415 1410 1408 1414 1411 1409 1408 1408 1406 1406 1407 1406 1405 1403 1401 1400 1398 1395 1393 1392 1391 1392 1393 1397 1403 1407 1411 1415
1475 1473 1472 1470 1469 1469 1468 1466 1464 1456 1446 1440 1440 1441 1439 1439 1439 1439 1438 1436 1436 1435 1435 1433 1431 1423 1422 1418 1419 1416 1414 1411 1409 1407 1405 1404 1403 1402 1400 1399 1397 1396 1394 1393 1391 1390 1389 1391 1393 1396 1400 1406 1410 1414
1469 1468 1467 1466 1466 1467 1464 1460 1459 1455 1444 1439 1439 1437 1436 1436 1437 1438 1437 1435 1435 1435 1435 1434 1431 1429 1426 1422 1419 1416 1413 1410 1408 1405 1402 1400 1399 1397 1396 1395 1394 1393 1391 1391 1389 1388 1390 1392 1390 1386 1399 1406 1410 1415
1465 1464 1463 1463 1463 1464 1461 1454 1450 1447 1441 1437 1435 1434 1433 1435 1436 1433 1433 1434 1437 1438 1436 1435 1431 1426 1421 1417 1413 1410 1408 1406 1404 1403 1401 1398 1396 1394 1392 1391 1390 1388 1388 1388 1389 1389 1392 1392 1388 1406 1408 1407 1410 1416
1464 1462 1463 1460 1461 1460 1456 1451 1447 1443 1442 1435 1432 1431 1435 1436 1433 1430 1433 1431 1437 1439 1437 1433 1428 1421 1413 1409 1405 1404 1402 1399 1397 1397 1396 1394 1392 1390 1388 1386 1384 1384 1385 1385 1387 1390 1392 1395 1399 1401 1406 1410 1412 1414
1460 1460 1461 1461 1459 1456 1450 1447 1445 1440 1437 1429 1427 1428 1432 1432 1429 1431 1431 1432 1437 1438 1436 1434 1431 1424 1418 1414 1408 1405 1403 1399 1398 1398 1397 1395 1393 1391 1389 1388 1387 1386 1385 1381 1382 1388 1393 1398 1402 1406 1404 1409 1413 1417
1458 1460 1457 1454 1454 1448 1441 1439 1437 1434 1429 1428 1428 1427 1427 1430 1428 1427 1426 1430 1433 1435 1434 1434 1431 1429 1426 1421 1418 1416 1413 1411 1408 1407 1406 1403 1400 1400 1398 1393 1393 1391 1389 1385 1382 1387 1393 1399 1403 1404 1407 1410 1412 1415
1459 1454 1453 1449 1444 1441 1433 1428 1428 1426 1426 1425 1422 1424 1427 1426 1426 1425 1425 1427 1431 1432 1433 1434 1432 1430 1430 1425 1424 1422 1419 1417 1416 1416 1414 1413 1412 1409 1409 1408 1406 1403 1405 1403 1403 1405 1407 1408 1405 1404 1407 1411 1414 1417
1453 1445 1444 1433 1430 1431 1424 1422 1423 1425 1424 1423 1421 1421 1422 1424 1422 1423 1422 1426 1429 1430 1431 1430 1429 1429 1428 1428 1426 1423 1423 1422 1421 1420 1420 1419 1419 1417 1416 1415 1413 1411 1411 1413 1413 1413 1413 1412 1410 1411 1414 1417 1418 1420
1447 1434 1432 1431 1427 1424 1423 1420 1420 1420 1422 1422 1418 1418 1418 1419 1418 1425 1424 1426 1426 1429 1430 1430 1429 1429 1428 1428 1427 1426 1426 1425 1424 1424 1424 1423 1424 1424 1423 1421 1420 1420 1420 1419 1418 1418 1418 1417 1417 1418 1419 1420 1423 1423
1435 1429 1425 1424 1425 1424 1422 1423 1422 1420 1416 1418 1419 1420 1418 1417 1422 1424 1424 1426 1427 1429 1429 1429 1430 1429 1428 1428 1427 1427 1427 1427 1429 1427 1427 1428 1428 1428 1428 1427 1426 1425 1423 1423 1423 1423 1423 1423 1424 1424 1424 1425 1426 1427
1427 1424 1424 1421 1419 1419 1419 1419 1419 1416 1416 1417 1420 1420 1421 1421 1421 1422 1425 1426 1428 1427 1427 1428 1429 1429 1428 1428 1426 1424 1427 1428 1429 1432 1430 1430 1430 1432 1432 1432 1431 1430 1429 1428 1427 1426 1425 1426 1426 1427 1427 1428 1429 1429
1420 1419 1417 1417 1415 1414 1415 1414 1416 1415 1415 1417 1418 1418 1420 1421 1422 1423 1425 1427 1427 1427 1428 1429 1428 1428 1429 1429 1428 1429 1427 1429 1429 1430 1430 1432 1433 1435 1435 1435 1435 1435 1433 1432 1432 1431 1430 1431 1431 1432 1431 1431 1431 1431
1412 1413 1414 1411 1408 1409 1412 1412 1413 1415 1416 1416 1417 1417 1419 1420 1422 1424 1425 1426 1427 1428 1428 1429 1428 1428 1429 1429 1429 1430 1432 1433 1434 1434 1434 1435 1437 1438 1438 1438 1438 1437 1437 1437 1436 1436 1435 1435 1436 1436 1436 1436 1435 1435
1410 1410 1409 1407 1407 1409 1411 1411 1412 1414 1415 1415 1414 1415 1417 1418 1421 1423 1424 1426 1427 1427 1428 1429 1430 1433 1431 1431 1432 1433 1434 1435 1437 1438 1439 1439 1440 1441 1440 1440 1441 1441 1441 1441 1440 1440 1440 1440 1440 1440 1440 1439 1439 1440
1406 1406 1405 1405 1407 1407 1410 1410 1414 1414 1412 1410 1412 1413 1413 1417 1417 1420 1421 1423 1425 1426 1427 1429 1430 1432 1433 1434 1435 1436 1437 1437 1438 1439 1440 1441 1441 1442 1441 1441 1442 1443 1443 1443 1443 1444 1444 1444 1445 1445 1444 1444 1444 1443
Wind_Speed
13 14 15 16 16 17 18 19 20 21 21 19 16 14 14 14 13 10 6 9 6 12 26 25 22 23 17 18 11 1 6 12 10 14 15 16 15 3 8 28 11 14 4 1 17 17 18 12 13 12 2 2 14 16
14 14 15 15 16 17 18 18 19 20 20 20 19 17 17 16 16 13 5 8 9 11 19 26 29 28 25 23 20 18 18 13 4 9 10 10 4 6 8 8 14 12 7 5 4 12 42 5 4 9 7 10 9 13
15 16 16 16 17 17 18 19 19 20 20 20 21 21 20 19 17 16 10 9 12 13 27 16 14 12 13 23 23 24 20 16 17 14 12 6 5 7 14 19 12 5 27 8 8 24 35 12 10 9 12 11 9 11
16 17 17 18 18 19 20 20 20 21 22 23 24 24 22 20 19 19 14 6 7 9 7 3 3 6 9 10 15 22 28 18 15 15 14 10 7 7 13 11 4 6 9 13 11 26 26 11 13 10 10 8 9 8
16 18 19 20 20 20 21 22 21 21 23 24 23 21 20 19 19 18 17 15 13 8 8 16 26 17 16 17 16 18 21 23 23 13 11 11 16 1 13 10 7 16 6 5 1 11 10 12 9 7 6 7 6 6
16 18 20 21 21 21 22 23 23 24 25 24 24 23 21 19 16 9 4 3 6 12 5 5 9 12 10 10 11 12 18 18 20 20 15 21 21 2 8 8 16 6 8 8 10 8 5 4 8 7 8 7 5 3
17 17 19 21 23 22 23 23 23 25 23 24 24 23 20 16 10 3 4 2 2 6 3 7 6 9 11 10 10 12 15 17 17 18 18 19 18 10 10 15 13 3 2 3 6 1 3 3 4 6 5 5 5 3
16 17 19 22 23 24 24 24 25 22 21 22 22 15 10 4 4 1 8 7 5 3 5 4 6 11 11 12 9 9 10 15 14 17 15 12 19 19 12 15 23 19 6 5 9 5 6 3 2 5 4 4 4 4
16 17 18 21 24 25 25 25 22 21 19 19 12 6 7 5 0 2 6 7 8 6 5 6 11 5 10 12 9 9 10 7 12 8 13 12 9 9 8 20 15 14 18 10 8 4 5 6 7 7 7 8 8 6
16 17 18 21 24 26 25 24 22 17 16 9 4 1 0 1 3 2 1 2 3 5 5 6 20 13 18 12 7 5 5 6 6 10 13 11 11 10 13 4 2 4 6 9 11 11 9 9 8 10 11 10 9 8
16 16 18 20 24 25 25 19 20 19 8 6 3 2 3 5 3 2 3 4 3 3 2 9 15 11 16 8 2 5 2 3 4 4 4 5 12 6 6 2 2 4 9 13 15 17 17 17 17 14 13 11 9 10
16 16 17 20 23 24 18 21 18 14 7 6 6 5 3 4 6 4 3 3 3 3 5 5 10 14 11 6 3 5 4 4 3 3 2 4 3 7 3 1 2 5 8 10 13 16 18 18 18 16 14 13 13 13
16 16 17 20 23 20 17 19 16 12 7 1 2 3 5 4 2 5 2 2 2 5 5 6 6 4 5 3 6 3 4 5 0 2 6 3 5 6 5 4 5 7 8 10 11 12 15 18 17 18 16 15 15 14
17 16 17 20 18 15 18 15 12 8 1 4 4 3 4 4 3 3 4 6 10 11 13 11 9 4 5 4 4 3 4 3 3 3 2 5 5 4 5 6 8 10 11 11 11 11 12 15 18 18 18 18 17 15
15 14 17 15 13 16 16 13 9 4 3 5 3 4 4 4 9 12 6 8 10 12 14 12 12 12 5 5 4 3 3 5 5 2 3 7 3 5 7 9 11 12 12 12 11 11 9 12 17 19 19 18 17 16
13 15 11 13 17 16 12 13 8 3 4 4 5 7 9 7 4 10 8 13 12 13 14 11 5 4 5 4 4 6 5 1 3 3 6 6 5 7 9 11 12 13 13 14 13 11 12 14 20 21 19 19 18 16
11 8 13 17 17 15 13 8 3 3 4 4 8 9 10 10 7 12 12 9 11 13 4 5 4 3 4 4 3 5 4 4 5 6 5 6 9 11 12 13 13 14 14 15 14 13 14 16 19 23 21 18 17 14
10 10 16 16 14 12 6 3 3 5 7 11 9 4 7 10 14 14 10 7 8 7 7 3 5 4 4 4 3 1 8 10 11 13 13 11 12 14 14 15 15 15 15 15 14 14 12 17 22 24 24 21 17 14
11 14 15 15 10 6 3 4 5 5 10 8 6 7 7 9 11 10 8 6 4 6 4 4 4 2 3 5 11 19 19 19 19 16 17 16 16 16 16 15 15 16 14 14 11 10 9 15 22 25 24 20 18 17
13 13 13 8 5 2 4 5 5 6 7 3 7 9 10 6 6 6 6 9 6 3 2 2 2 6 13 20 19 19 19 17 16 17 17 15 14 13 13 14 15 14 13 9 6 7 11 19 19 29 27 23 20 17
10 6 4 5 5 6 5 5 7 8 9 7 8 7 7 3 5 3 4 6 7 3 4 6 13 19 16 18 18 17 16 14 14 16 17 17 15 15 15 16 15 14 11 7 6 16 25 28 21 15 20 20 15 18
6 6 2 6 4 4 6 8 8 6 6 11 9 7 1 4 7 1 1 2 4 1 3 10 15 18 23 16 9 7 11 14 13 12 12 11 10 6 4 7 8 5 8 10 11 22 27 27 31 28 19 14 18 13
5 2 3 5 4 4 7 6 6 5 4 3 6 2 2 3 1 3 1 3 3 3 6 13 14 25 23 28 29 31 31 31 29 27 22 22 20 19 17 15 9 11 13 6 26 28 29 26 26 22 15 18 18 11
3 3 4 6 9 5 6 7 7 6 4 4 3 3 0 2 3 3 3 2 7 7 5 4 9 12 15 25 22 26 27 33 32 35 31 33 34 33 31 33 33 27 27 30 32 28 17 18 12 7 10 14 14 18
4 5 5 7 7 6 6 8 8 6 4 6 7 1 3 4 2 3 3 6 11 6 2 2 2 7 12 7 11 10 11 13 15 15 16 19 22 25 31 35 30 23 25 26 27 24 20 10 4 11 12 11 8 6
5 7 7 7 8 6 4 3 3 4 4 3 3 2 2 3 3 3 4 12 9 7 5 7 5 7 9 6 5 5 5 4 6 9 11 11 17 21 17 13 12 10 12 16 14 11 11 10 11 12 12 9 7 3
5 6 10 9 7 5 5 6 3 3 1 3 3 1 3 3 2 3 7 7 8 6 4 3 3 7 8 10 8 8 10 11 13 14 15 15 15 13 15 16 17 16 15 14 14 12 11 9 8 7 7 7 5 3
8 5 9 12 11 12 6 5 3 3 3 2 3 1 2 3 2 4 8 7 6 5 4 4 4 3 4 3 3 6 9 14 11 12 14 14 14 14 15 17 17 16 13 12 12 10 9 8 8 7 7 6 5 3
8 9 10 11 9 8 7 5 4 6 3 1 1 3 4 4 5 9 9 9 9 9 6 6 5 5 5 3 4 15 4 3 14 13 11 13 14 14 13 14 14 14 14 16 19 19 13 11 11 10 8 8 8 8
13 12 10 11 11 7 8 6 3 2 1 4 4 5 1 4 4 7 11 9 10 8 6 2 1 2 5 4 6 8 14 13 7 8 12 11 12 11 12 13 13 14 14 13 12 13 14 14 13 11 11 10 9 9
5 11 11 13 11 10 8 6 3 2 2 2 3 2 4 8 9 9 11 9 8 6 6 3 4 2 6 7 6 8 9 8 9 9 9 10 10 10 10 10 12 13 14 14 13 12 12 13 13 13 12 11 10 10
9 10 10 9 4 8 4 7 5 5 7 5 2 4 6 6 5 8 11 13 11 9 7 5 8 9 5 5 5 6 7 8 8 9 7 7 7 6 6 7 9 10 11 13 13 13 12 12 13 13 13 13 12 10
11 11 13 3 3 5 5 3 1 5 7 6 4 5 7 8 5 7 8 12 13 13 10 9 7 9 7 6 6 6 6 6 5 6 7 7 5 4 4 4 5 6 7 7 9 9 10 9 9 9 10 10 9 8
Wind_Direction
337 337 339 342 346 349 351 352 355 357 359 357 354 352 346 342 342 345 278 290 276 279 281 279 275 267 269 250 262 340 268 237 256 226 254 263 263 353 155 249 238 227 195 309 256 221 242 225 134 201 195 275 216 153
334 333 333 333 336 339 340 342 344 345 346 348 346 340 337 335 334 335 330 285 291 258 267 284 274 257 246 249 277 277 264 305 259 252 271 279 334 10 5 280 258 231 155 123 75 316 302 305 63 89 119 113 104 122
336 334 333 331 330 330 329 331 334 334 334 334 333 329 325 322 321 320 290 279 299 285 299 264 270 264 246 230 237 252 253 261 267 283 301 285 279 202 221 216 235 195 142 124 100 309 294 108 110 117 120 127 126 128
335 334 332 331 330 327 326 326 328 328 327 324 321 316 312 310 310 312 291 298 262 295 280 320 295 210 237 234 247 234 240 260 264 262 271 266 255 249 273 301 20 0 47 326 200 206 259 99 107 111 106 118 114 109
322 327 331 331 326 325 327 326 325 325 324 322 321 318 314 309 308 306 294 272 235 248 310 304 297 280 253 243 232 237 231 234 244 254 249 249 260 134 259 261 262 241 180 218 187 19 303 113 119 117 116 106 109 112
309 321 321 326 327 325 326 327 327 327 327 324 321 319 315 307 303 309 293 288 233 205 289 292 318 274 239 219 233 231 219 222 231 239 249 263 256 258 277 283 289 270 303 331 350 20 341 66 117 133 129 135 132 135
302 315 320 325 328 326 327 327 326 326 322 320 319 316 312 300 279 212 345 165 315 187 256 286 273 186 226 232 233 223 216 220 225 237 244 257 258 229 260 271 266 175 219 337 311 258 204 188 141 131 137 147 149 145
305 307 316 324 326 325 327 327 326 326 322 321 324 330 343 348 107 157 261 303 263 233 258 277 274 262 191 221 222 200 213 209 216 237 237 231 236 244 254 273 274 278 268 262 299 282 278 46 146 167 182 182 187 187
301 302 313 319 326 327 327 328 330 331 328 329 335 356 32 52 127 240 265 258 193 214 286 258 279 335 317 249 157 212 218 215 234 216 236 240 227 228 230 237 259 258 260 276 293 264 254 217 212 220 216 214 220 218
295 302 309 316 324 326 327 328 331 335 334 351 22 310 99 245 312 283 330 153 216 216 243 264 280 278 287 319 332 163 252 250 219 220 234 229 249 257 205 177 250 301 288 263 266 259 238 250 251 241 228 227 227 219
293 299 308 315 321 325 326 324 333 338 13 341 288 1 273 282 310 250 229 230 151 254 294 296 302 311 307 326 309 254 239 249 228 247 235 250 232 129 122 185 247 277 275 267 261 256 258 258 238 235 227 224 205 189
289 296 308 314 321 322 322 329 332 344 305 292 247 256 224 234 235 243 201 173 227 227 229 229 293 313 289 299 273 257 226 203 256 129 163 258 65 115 119 48 343 306 300 284 271 259 253 251 249 244 221 206 189 178
283 294 305 313 319 319 321 324 328 332 318 291 2 246 208 244 347 248 242 209 223 224 242 251 288 284 302 318 272 290 257 262 18 205 214 130 133 76 39 4 338 323 317 309 293 275 259 246 232 229 207 199 183 172
279 294 304 313 314 313 320 318 326 331 345 248 226 269 245 230 233 310 319 286 272 281 286 287 287 239 227 224 235 236 272 295 249 259 320 103 77 48 15 357 339 329 325 320 310 295 267 233 217 209 198 189 184 176
279 298 306 310 311 319 317 314 317 296 260 257 238 247 218 296 358 310 331 299 293 282 299 295 268 234 227 239 267 252 216 219 214 91 95 111 63 7 353 345 338 331 325 316 309 297 267 221 205 192 188 180 181 172
291 307 309 313 319 321 309 313 296 256 247 247 241 255 248 276 300 268 333 333 343 328 313 279 267 251 232 260 263 233 260 354 59 64 6 2 8 336 330 328 327 322 316 307 297 287 261 227 199 187 177 176 173 169
298 305 300 311 320 314 310 298 258 234 257 243 235 247 292 298 293 308 328 321 323 319 339 304 263 278 294 247 237 348 354 358 330 305 294 306 307 310 310 309 312 310 304 303 295 269 253 216 197 173 166 170 165 162
293 289 293 310 318 314 304 224 253 244 237 235 249 253 297 300 298 327 323 322 315 327 321 315 308 272 279 300 329 338 303 297 297 296 293 297 297 300 298 295 297 300 294 300 296 267 258 217 190 172 165 163 157 153
285 277 290 298 297 305 255 228 223 261 247 271 279 283 277 304 327 330 324 328 324 319 315 299 273 294 278 343 338 325 320 322 319 313 304 296 286 288 291 290 292 290 284 292 292 266 240 206 186 165 151 146 149 147
294 290 292 272 267 249 248 224 224 259 275 312 275 271 296 332 317 346 358 4 4 21 356 307 304 303 299 307 305 294 297 302 298 297 293 289 293 297 290 283 284 288 281 290 278 216 167 145 150 139 143 142 137 139
310 302 281 272 264 224 261 260 229 246 288 274 279 287 303 315 294 273 21 41 47 15 342 315 319 323 306 295 286 286 289 291 285 283 286 292 295 297 289 283 282 280 260 250 190 175 162 149 143 151 143 126 135 172
261 270 244 288 230 251 258 234 257 318 268 271 288 266 260 254 262 92 3 70 76 18 323 339 346 346 339 359 339 299 292 289 288 284 288 293 300 307 336 304 285 243 270 247 219 185 167 163 160 166 182 202 173 148
254 249 235 224 236 239 263 217 244 235 245 259 258 193 209 221 252 175 25 49 87 149 26 50 54 43 37 45 56 78 71 77 83 79 80 79 77 70 82 89 98 103 56 145 177 173 157 160 173 189 170 161 162 169
224 224 236 216 204 254 217 217 219 268 255 264 265 269 95 185 233 234 162 121 142 134 161 124 34 39 56 62 72 73 77 84 80 76 73 70 77 73 70 75 77 77 65 70 86 97 106 126 150 162 148 164 176 195
244 231 211 243 222 226 247 229 219 231 255 244 275 59 256 164 231 219 151 150 111 103 162 135 319 49 65 62 70 71 73 54 56 62 65 71 82 81 86 86 76 75 79 79 82 86 95 110 112 117 104 88 107 125
240 210 200 218 206 210 233 236 211 239 261 282 246 227 261 192 236 153 167 134 138 123 151 149 144 79 65 61 49 56 75 58 77 62 67 88 81 72 71 71 68 67 89 81 75 76 83 78 63 73 93 90 97 105
249 232 209 234 275 240 258 261 249 284 222 251 265 252 224 241 144 145 145 146 133 115 107 108 53 84 85 88 78 74 83 85 95 85 87 88 90 92 91 82 67 61 61 63 69 72 71 74 78 85 107 109 97 63
243 263 238 217 215 242 237 270 207 249 236 146 329 293 255 8 71 161 164 160 145 145 120 112 119 82 82 91 143 157 112 110 106 105 96 89 83 79 74 67 55 57 65 74 67 67 71 74 75 76 75 74 71 43
231 225 227 251 226 220 222 221 226 243 192 175 256 322 342 15 163 167 159 163 165 180 164 133 135 151 120 97 33 115 149 147 114 116 104 97 86 75 72 72 63 55 50 51 59 63 73 81 77 74 76 76 67 61
232 229 218 223 222 218 230 199 277 257 260 339 306 280 211 198 173 162 168 167 175 174 155 138 196 103 137 146 98 89 110 88 116 111 107 104 96 83 75 69 63 56 52 58 61 61 68 70 68 71 72 71 70 70
224 198 217 236 215 216 214 218 205 223 234 288 334 355 127 153 163 176 182 177 177 186 180 179 169 110 103 87 88 108 94 89 95 101 107 106 96 86 73 64 59 53 51 58 65 72 75 73 68 64 62 63 62 62
211 216 208 229 198 167 185 215 199 198 226 210 179 150 153 158 148 181 191 191 195 196 197 177 166 145 130 107 101 72 89 109 110 119 120 108 103 88 81 74 64 58 61 64 64 68 73 72 67 61 58 60 62 65
215 206 222 204 165 167 218 194 186 244 254 233 182 215 167 175 182 175 192 193 196 199 190 187 152 171 145 119 121 109 114 116 132 143 142 130 124 107 64 50 53 53 62 63 69 70 71 71 69 65 60 58 57 58